Regional Weather Roundup
Issued by NWS

Home | Current Version | Previous Version | Graphics & Text | Print | Product List | Glossary On
Versions: 1 2 3 4 5 6 7 8 9 10 11 12 13 14 15 16 17 18 19 20 21 22 23 24 25 26 27 28 29 30 31 32 33 34 35 36 37 38 39 40 41 42 43 44 45 46 47 48 49 50
000
ASUS43 KLOT 270308
RWRIL

ILLINOIS REGIONAL WEATHER ROUNDUP
NATIONAL WEATHER SERVICE CHICAGO/ROMEOVILLE IL
1000 PM CDT FRI AUG 26 2016

NOTE: "FAIR" INDICATES FEW OR NO CLOUDS BELOW 12,000 FEET WITH NO
SIGNIFICANT WEATHER AND/OR OBSTRUCTIONS TO VISIBILITY.

* THESE STATIONS ARE NOT UNDER NWS QUALITY CONTROL. THEY ALSO MAY NOT
  REPORT WEATHER SUCH AS PRECIPITATION OR FOG.

ILZ001-002-007-009-015-016-024-270400-
NORTHWEST ILLINOIS

CITY           SKY/WX    TMP DP  RH WIND       PRES   REMARKS
MOLINE         CLOUDY    73  64  73 E9        30.07F
STERLING*      CLOUDY    72  65  78 NE6       30.10F
SAVANNA*       MOCLDY    69  63  80 NE7       30.09F
$$

ILZ003-004-008-010-011-017-018-270400-
NORTH CENTRAL ILLINOIS

CITY           SKY/WX    TMP DP  RH WIND       PRES   REMARKS
ROCKFORD       MOCLDY    71  63  75 NE7       30.13F
FREEPORT*      MOCLDY    66  63  91 NE5       30.14F
ROCHELLE*      PTCLDY    68  65  90 NE7       30.12S
DE KALB*       CLOUDY    68  61  77 E8        30.13S
$$

ILZ005-006-012>014-019>023-270400-
NORTHEAST ILLINOIS

CITY           SKY/WX    TMP DP  RH WIND       PRES   REMARKS
CHICAGO-OHARE  MOCLDY    71  63  75 NE10      30.12F
CHICAGO-MIDWAY LGT RAIN  74  64  71 E12       30.12F
AURORA         CLOUDY    71  63  75 NE7       30.12S
LANSING*       CLOUDY    73  68  84 NE7       30.12F
JOLIET*        CLOUDY    73  67  79 E7        30.11S
WAUKEGAN       PTCLDY    67  62  84 NE6       30.14F
DUPAGE AIRPORT MOCLDY    69  61  75 NE7       30.13S
KANKAKEE*      PTCLDY    72  68  88 NE7       30.10F
WHEELING       PTCLDY    69  62  78 NE3       30.14F
MORRIS*        RAIN      69  67  94 CALM      30.10R
ROMEOVILLE*    RAIN      69  68  94 E10       30.12S
NORTHERLY ISL    N/A     72  65  78 NE12        N/A
$$

LMZ740>746-270400-
SOUTHERN LAKE MICHIGAN

STATION/POSITION SKY/WX   TEMP    WIND        PRES    VSBY  WAVE
                          AIR SEA DIR/SP/G                  HT/PER
                          (F)     (DEG/KT/KT) (MB)    (MI)  (FT/S)
SOUTHERN BUOY              71 75   50/ 10/ 12 1020.4F         1
WILMETTE HARBOR            72 71   80/ 12/ 16   N/A           2/ 3
HARRISON CRIB              73      70/ 12/ 13   N/A
BURNHAM HARBOR             72      50/ 10/ 10   N/A
CALUMET HARBOR             72                 1019.9
BURNS HARBOR               73      70/ 13/ 15 1020.7S
MICHIGAN CITY              73      30/ 13/ 15   N/A
MICHIGAN CITY 6N           74 75   50/ 12/ 17   N/A           3/ 3
ST. JOSEPH                 72 76   50/ 10/ 12 1020.2F         2/ 3
$$

ILZ025>027-034>036-040-047-049-050-058-095>099-270400-
WEST-CENTRAL ILLINOIS

CITY           SKY/WX    TMP DP  RH WIND       PRES   REMARKS
QUINCY         CLOUDY    74  74 100 NE9       30.02F THUNDER
GALESBURG*     CLOUDY    73  67  79 E6        30.06F
MACOMB*        TSTM      73  71  92 E3        30.06F
JACKSONVILLE*  LGT RAIN  73  70  88 SE7       30.05F
PITTSFIELD*    LGT RAIN  76  75  96 E3        30.05F
$$

ILZ028>032-037-038-041>044-048-051>054-059>061-270400-
CENTRAL ILLINOIS

CITY           SKY/WX    TMP DP  RH WIND       PRES   REMARKS
PONTIAC        CLOUDY    72  72  99 CALM      30.10S
BLOOMINGTON    CLOUDY    71  70  96 SE5       30.11R
DECATUR        CLOUDY    72  69  90 E6        30.09R
PEORIA         CLOUDY    74  73  97 E7        30.06F
LACON*         CLOUDY    71  68  91 E5        30.07F
LINCOLN*       CLOUDY    73  73  99 CALM      30.07F
SPRINGFIELD    CLOUDY    74  71  91 SE3       30.06F
TAYLORVILLE    CLOUDY    71  71  99 CALM      30.08S
$$

ILZ033-039-045-046-055>057-062-063-270400-
EAST-CENTRAL ILLINOIS

CITY           SKY/WX    TMP DP  RH WIND       PRES   REMARKS
CHAMPAIGN      CLOUDY    72  70  93 E6        30.10S
RANTOUL*       CLOUDY    73  72  98 CALM      30.09F
MATTOON        CLOUDY    72  69  90 CALM      30.09S
PARIS*         CLOUDY    71  71 100 CALM      30.10F
$$

ILZ079-100>102-270400-
SOUTHWEST ILLINOIS

CITY           SKY/WX    TMP DP  RH WIND       PRES   REMARKS
ALTON          PTCLDY    72  70  94 E5        30.06S
BELLEVILLE     CLOUDY    77  75  92 SE8       30.06R
CAHOKIA*       CLOUDY    77  71  82 CALM      30.06R
SPARTA*        CLOUDY    78  73  87 S7        30.09S
$$

ILZ064>066-069>071-074>076-080>082-084>086-088>090-092>094-270400-
SOUTH-CENTRAL ILLINOIS

CITY           SKY/WX    TMP DP  RH WIND       PRES   REMARKS
CARBONDALE     LGT RAIN  73  71  93 E3        30.08F
CAIRO*         CLOUDY    74  73  96 SE13G20   30.10R
EFFINGHAM*     PTCLDY    73  73 100 E3        30.11R FOG
MARION         LGT RAIN  77  75  94 SW5       30.08F
MT. VERNON     CLOUDY    75  70  83 CALM      30.09S
CENTRALIA*     MOCLDY    77  75  94 CALM      30.08R
SALEM*         CLOUDY    77  73  87 E5        30.09R
METROPOLIS*    RAIN      75  71  88 S15G22    30.16R
$$

ILZ067-068-072-073-078-083-087-091-270400-
SOUTHEAST ILLINOIS

CITY           SKY/WX    TMP DP  RH WIND       PRES   REMARKS
LAWRENCEVILLE  CLOUDY    76  74  93 CALM      30.09R
FLORA*         CLOUDY    76  74  95 CALM      30.09S
FAIRFIELD*     CLOUDY    75  74  96 CALM      30.07S
HARRISBURG*    LGT RAIN  75  74  97 CALM      30.08F
ROBINSON*      CLOUDY    73  72  98 CALM      30.10R
CARMI*         MOCLDY    75  75 100 CALM      30.07S
$$

ABBREVIATIONS USED IN REMARKS
   TC - TEMPERATURE IN CELSIUS
  WCI - WIND CHILL INDEX
   HX - HEAT INDEX
  VSB - VISIBILITY
$$





USA.gov is the U.S. government's official web portal to all federal, state and local government web resources and services.